[[{"header":{"parameterUnit":"m.s-1","parameterCategory":1,"la1":30.2991,"la2":30.254,"lo1":-89.0895,"lo2":-89.0444,"dy":0.0017,"dx":0.0017,"nx":28,"ny":28,"refTime":"2024-07-22T03:00:00:Z","depth":0,"parameterNumber":2,"parameterNumberName":"U-component_of_WINDS"},"data":[0,0,0,0,0,0,0,0,0,0,0,0,0,0,0,0,0,0,0,0,0,0,0,0,0,0,0,0,0,0,0,0,0,0,0,0,0,0,0,0,0,0,0,0,0,0,0,0,0,0,0,0,0,0,0,0,0,0,1.5631,1.5631,0,1.5683,1.5684,1.5684,1.5694,1.5694,1.5693,1.5693,1.5745,1.5747,1.5749,0,0,0,0,0,0,0,0,0,0,0,0,0,1.5536,1.5538,1.5631,1.5631,1.5632,1.5683,1.5684,1.5685,1.5694,1.5694,1.5693,1.5693,1.5745,1.5747,1.5749,0,0,0,0,0,0,0,0,0,0,0,0,0,1.5582,1.5538,1.5631,1.5643,1.5645,1.5683,1.5684,1.5685,1.5694,1.5694,1.5693,1.5692,1.5744,1.5747,1.5749,1.5779,0,0,1.5757,1.5759,0,0,0,0,0,0,0,0,1.5579,1.5585,1.5641,1.5642,1.5644,1.5681,1.567,1.5716,1.5694,1.5675,1.5693,1.5692,1.5724,1.5729,1.574,1.5781,1.5783,1.5758,1.5759,1.5761,1.5761,0,0,0,0,0,0,0,1.5576,1.5583,1.5652,1.5641,1.5644,1.5645,1.5651,1.5679,1.5703,1.5677,1.5678,1.5684,1.5725,1.5737,1.5741,1.5784,1.5758,1.576,1.5762,1.5763,1.5849,1.585,0,0,0,0,0,0,1.5571,1.558,1.565,1.5653,1.5609,1.5647,1.5654,1.567,1.5703,1.5707,1.5684,1.5684,1.5733,1.5738,1.5743,1.5778,1.576,1.5763,1.5765,1.5848,1.5849,1.585,0,0,0,0,0,0,1.5569,1.5577,1.5648,1.5617,1.5626,1.565,1.5668,1.5671,1.5683,1.5708,1.5712,1.5692,1.5733,1.5739,1.5769,1.578,1.5764,1.5767,1.5848,1.5849,1.585,1.5849,0,0,0,0,0,0,1.5566,1.5576,1.5589,1.5617,1.5628,1.5674,1.5669,1.5673,1.5688,1.5688,1.5717,1.5721,1.5733,1.5765,1.5772,1.5783,1.5769,1.5847,1.5848,1.5849,1.5848,1.585,1.5851,0,0,0,0,0,1.5563,1.5587,1.5589,1.5597,1.5644,1.5674,1.568,1.5694,1.5689,1.5701,1.5716,1.572,1.5778,1.5768,1.5776,1.5788,1.5846,1.5848,1.5849,1.5847,1.5849,1.5851,0,0,0,0,0,0,1.5559,1.5591,1.5594,1.5628,1.5648,1.5676,1.5692,1.5696,1.5718,1.5717,1.5733,1.5739,1.5768,1.5781,1.577,1.5817,1.5811,1.5814,1.5807,1.5809,1.5811,1.5807,1.5771,0,0,0,0,0,1.5562,1.5585,1.5611,1.5638,1.5649,1.5668,1.5682,1.5691,1.5712,1.5721,1.5739,1.5759,1.5782,1.5796,1.5819,1.585,1.5855,1.5862,1.5863,1.5865,1.5867,1.5882,1.5885,1.5855,1.5855,1.5855,0,0,1.5568,1.5589,1.5602,1.5638,1.5655,1.5677,1.5676,1.57,1.5716,1.5725,1.5754,1.5767,1.5791,1.5821,1.5835,1.5833,1.5876,1.5866,1.5867,1.5869,1.5884,1.5887,1.5889,1.5856,1.5856,1.5856,0,0,1.5591,1.561,1.5634,1.565,1.5676,1.5688,1.5694,1.572,1.573,1.5759,1.5765,1.5784,1.5823,1.5839,1.5852,1.5879,1.5882,1.5886,1.5894,1.5908,1.5911,1.5913,1.5921,1.5924,1.5888,1.5888,1.5888,0,1.5596,1.5631,1.5645,1.5669,1.5683,1.5692,1.5715,1.573,1.5761,1.5771,1.5768,1.5816,1.5832,1.5865,1.5871,1.5882,1.5888,1.5883,1.5909,1.5912,1.5914,1.5922,1.5925,1.5888,1.5888,1.5888,1.5888,0,1.5635,1.5659,1.5675,1.5704,1.5721,1.5744,1.576,1.5775,1.5781,1.5794,1.5822,1.5842,1.5867,1.5876,1.5883,1.5909,1.5907,1.5906,1.5901,1.5917,1.5924,1.5927,1.5888,1.5888,1.5888,1.5888,0,0,1.5658,1.5694,1.5699,1.5712,1.5739,1.5757,1.578,1.5805,1.5817,1.5837,1.5856,1.5887,1.5887,1.5901,1.591,1.5923,1.594,1.5921,1.5921,1.5923,1.5968,1.5968,1.5971,1.5943,1.5943,1.5944,1.5966,0,1.5683,1.5725,1.5737,1.5771,1.5792,1.5799,1.5819,1.5837,1.5849,1.5867,1.588,1.5902,1.59,1.5909,1.5922,1.5935,1.5949,1.5934,1.5959,1.5959,1.5952,1.5975,1.5975,1.5995,1.5969,1.5969,1.597,0,1.5719,1.574,1.5776,1.5799,1.5808,1.5826,1.5848,1.5867,1.5887,1.5894,1.5909,1.5916,1.5938,1.5932,1.5962,1.5951,1.5961,1.5969,1.597,1.5973,1.5965,1.5977,1.6002,1.6004,1.5975,1.5974,1.5974,0,1.573,1.5767,1.5793,1.5804,1.5832,1.5844,1.5856,1.5875,1.5889,1.5908,1.5916,1.5938,1.595,1.5966,1.5978,1.5972,1.6006,1.6001,1.6011,1.6011,1.6018,1.6017,1.6044,1.6026,1.6026,1.6026,1.6026,0,1.5757,1.5778,1.5798,1.5814,1.5838,1.5851,1.5874,1.5886,1.5903,1.592,1.5928,1.5944,1.5959,1.5976,1.5986,1.6008,1.6013,1.6019,1.6021,1.6018,1.6017,1.6025,1.6023,1.6027,1.6027,1.6027,1.6026,0,1.5773,1.5788,1.5816,1.584,1.5846,1.5863,1.5882,1.5897,1.5909,1.593,1.5936,1.5954,1.5974,1.5988,1.6014,1.602,1.6044,1.6046,1.6038,1.6038,1.6048,1.6047,1.608,1.6084,1.6064,1.6064,1.6065,0,1.5789,1.5805,1.5831,1.5843,1.5855,1.5875,1.5888,1.5901,1.5915,1.5938,1.5949,1.5971,1.5988,1.6021,1.6035,1.6055,1.6057,1.6067,1.606,1.6056,1.6056,1.6054,1.6055,1.6068,1.6068,1.6069,1.6069,0,1.5814,1.582,1.584,1.5861,1.5877,1.5895,1.5912,1.5921,1.5937,1.5951,1.5973,1.5986,1.6013,1.6033,1.6054,1.6065,1.6069,1.6071,1.6074,1.6071,1.6065,1.6067,1.604,1.607,1.607,1.607,1.607,1.607,1.583,1.5845,1.5864,1.5885,1.5899,1.5915,1.593,1.5942,1.5961,1.5983,1.5989,1.6011,1.6029,1.6057,1.6068,1.6085,1.6083,1.6089,1.609,1.6091,1.609,1.6062,1.6089,1.6089,1.6089,1.6089,1.6089,0,1.5855,1.5868,1.5887,1.5911,1.5926,1.5929,1.5948,1.5961,1.598,1.5996,1.6013,1.6036,1.6056,1.6071,1.6091,1.6101,1.6103,1.6105,1.6104,1.6106,1.6091,1.6085,1.6103,1.6103,1.6103,1.6103,1.6103,1.6103,1.587,1.5894,1.5902,1.5932,1.5945,1.5966,1.5977,1.599,1.6003,1.6029,1.6045,1.6055,1.6071,1.6091,1.6108,1.6112,1.6118,1.612,1.6124,1.6109,1.6108,1.6106,1.6101,1.6122,1.6122,1.6139,1.6139,1.6139]},{"header":{"parameterUnit":"m.s-1","parameterCategory":1,"la1":30.2991,"la2":30.254,"lo1":-89.0895,"lo2":-89.0444,"dy":0.0017,"dx":0.0017,"nx":28,"ny":28,"refTime":"2024-07-22T03:00:00:Z","depth":0,"parameterNumber":3,"parameterNumberName":"V-component_of_WINDS"},"data":[0,0,0,0,0,0,0,0,0,0,0,0,0,0,0,0,0,0,0,0,0,0,0,0,0,0,0,0,0,0,0,0,0,0,0,0,0,0,0,0,0,0,0,0,0,0,0,0,0,0,0,0,0,0,0,0,0,0,3.672,3.672,0,3.6699,3.6699,3.6699,3.6677,3.6677,3.6677,3.6676,3.6654,3.6654,3.6653,0,0,0,0,0,0,0,0,0,0,0,0,0,3.6741,3.6741,3.672,3.672,3.672,3.6699,3.6699,3.6699,3.6677,3.6677,3.6676,3.6676,3.6654,3.6654,3.6653,0,0,0,0,0,0,0,0,0,0,0,0,0,3.6727,3.674,3.672,3.6707,3.6705,3.6699,3.6699,3.6699,3.6677,3.6677,3.6676,3.6676,3.6654,3.6654,3.6653,3.6659,0,0,3.6652,3.6652,0,0,0,0,0,0,0,0,3.6728,3.6726,3.6709,3.6708,3.6706,3.669,3.6698,3.6686,3.6677,3.6688,3.6676,3.6676,3.6666,3.6665,3.6662,3.6658,3.6657,3.6652,3.6651,3.6651,3.6651,0,0,0,0,0,0,0,3.6729,3.6727,3.6712,3.6709,3.6707,3.6701,3.6699,3.6696,3.668,3.6687,3.6685,3.6683,3.6665,3.6662,3.6661,3.6657,3.6652,3.6651,3.6651,3.6651,3.6656,3.6656,0,0,0,0,0,0,3.6732,3.6728,3.6713,3.6711,3.6716,3.6701,3.6698,3.6696,3.668,3.6677,3.6684,3.6682,3.6663,3.6662,3.666,3.6665,3.6651,3.6651,3.6651,3.6655,3.6656,3.6656,0,0,0,0,0,0,3.6733,3.6731,3.6714,3.6719,3.6717,3.6701,3.6699,3.6696,3.6693,3.6677,3.6674,3.6683,3.6663,3.6661,3.6659,3.6664,3.6651,3.665,3.6655,3.6656,3.6656,3.6676,0,0,0,0,0,0,3.6733,3.6731,3.6734,3.672,3.6716,3.6713,3.6699,3.6696,3.6692,3.669,3.6676,3.6674,3.6663,3.666,3.6659,3.6663,3.665,3.6654,3.6655,3.6656,3.6675,3.6677,3.6679,0,0,0,0,0,3.6734,3.674,3.6734,3.6732,3.6719,3.6714,3.6712,3.6699,3.6692,3.6694,3.6684,3.6674,3.6664,3.666,3.6659,3.6663,3.6654,3.6655,3.6656,3.6674,3.6677,3.6679,0,0,0,0,0,0,3.6755,3.6738,3.6731,3.6733,3.6725,3.671,3.6712,3.6703,3.6697,3.6695,3.668,3.6677,3.6677,3.667,3.6666,3.6667,3.6658,3.6658,3.6672,3.6674,3.6677,3.6678,3.6649,0,0,0,0,0,3.676,3.6757,3.6743,3.6745,3.6742,3.6728,3.6725,3.6716,3.6707,3.6704,3.6694,3.6685,3.668,3.6677,3.6671,3.6674,3.667,3.6676,3.6678,3.668,3.6681,3.668,3.6682,3.6659,3.6659,3.6659,0,0,3.677,3.676,3.676,3.6749,3.6742,3.6739,3.6725,3.6723,3.672,3.6703,3.6701,3.6693,3.6683,3.6683,3.6683,3.6677,3.6686,3.6681,3.6683,3.6682,3.6681,3.6684,3.6685,3.666,3.666,3.666,0,0,3.6786,3.6779,3.678,3.6774,3.6763,3.6754,3.6754,3.6741,3.6735,3.6732,3.6719,3.6716,3.6707,3.67,3.6695,3.6709,3.6698,3.6707,3.6718,3.6718,3.672,3.6722,3.6725,3.6727,3.6708,3.6708,3.6708,0,3.68,3.6795,3.6782,3.678,3.6776,3.6761,3.6761,3.6755,3.6743,3.674,3.6735,3.6723,3.6715,3.6713,3.6716,3.6713,3.6712,3.6708,3.6721,3.6722,3.6723,3.6727,3.6728,3.6709,3.6709,3.6709,3.6709,0,3.6812,3.6809,3.6811,3.68,3.6796,3.6796,3.6782,3.6779,3.6771,3.6762,3.6759,3.6748,3.674,3.6739,3.673,3.6735,3.6732,3.6724,3.6714,3.6727,3.673,3.6731,3.6711,3.671,3.671,3.671,0,0,3.684,3.6822,3.6823,3.6817,3.6805,3.6802,3.68,3.6792,3.679,3.6782,3.678,3.6773,3.6765,3.676,3.675,3.675,3.676,3.6742,3.6742,3.6745,3.6763,3.6769,3.6771,3.6754,3.6754,3.6754,3.6764,0,3.6854,3.6851,3.6839,3.6839,3.6835,3.682,3.6819,3.6811,3.6802,3.6798,3.6788,3.6783,3.6774,3.677,3.677,3.6759,3.6763,3.6758,3.675,3.675,3.6753,3.6772,3.6778,3.6788,3.6765,3.6765,3.6765,0,3.6869,3.6862,3.6862,3.6849,3.6847,3.6846,3.6837,3.6833,3.6823,3.6817,3.6811,3.68,3.6797,3.6788,3.6783,3.6779,3.6775,3.677,3.677,3.6768,3.6758,3.677,3.6791,3.6792,3.6767,3.6767,3.6767,0,3.6888,3.6879,3.6878,3.6874,3.6858,3.6858,3.6851,3.6841,3.6837,3.6829,3.6826,3.6818,3.6813,3.6807,3.6794,3.6789,3.679,3.678,3.6784,3.6784,3.6784,3.6784,3.6804,3.6783,3.6783,3.6783,3.6783,0,3.6904,3.6904,3.6886,3.6885,3.6885,3.6871,3.6871,3.6863,3.6854,3.685,3.6837,3.6834,3.6818,3.6812,3.6802,3.6799,3.6797,3.6791,3.6789,3.6792,3.6793,3.6789,3.6787,3.6783,3.6783,3.6783,3.6783,0,3.6925,3.6914,3.6911,3.6896,3.6893,3.6893,3.688,3.6878,3.6869,3.6865,3.6863,3.6849,3.6842,3.6829,3.6818,3.6811,3.681,3.6805,3.6813,3.6811,3.6815,3.6815,3.6832,3.6834,3.6813,3.6813,3.6814,0,3.6936,3.6935,3.6921,3.6918,3.6912,3.6908,3.6903,3.6889,3.6885,3.6873,3.6873,3.6865,3.6858,3.6848,3.6835,3.6827,3.6822,3.6829,3.682,3.6824,3.6821,3.682,3.682,3.683,3.683,3.6831,3.6831,0,3.6955,3.6949,3.6943,3.6935,3.6931,3.6924,3.6916,3.6914,3.6898,3.6894,3.6887,3.6882,3.6871,3.6863,3.6853,3.6845,3.6835,3.6834,3.6834,3.6837,3.6841,3.6838,3.6817,3.6833,3.6833,3.6833,3.6833,3.6833,3.697,3.6969,3.6958,3.6952,3.6945,3.6938,3.6936,3.6926,3.692,3.6911,3.6903,3.6896,3.6885,3.6871,3.6864,3.6858,3.6853,3.6854,3.6854,3.6854,3.6855,3.6843,3.6856,3.6856,3.6856,3.6856,3.6856,0,3.6987,3.698,3.6975,3.6965,3.696,3.6951,3.6942,3.6938,3.6933,3.6924,3.6917,3.6909,3.6901,3.6888,3.6879,3.6877,3.6872,3.6875,3.6874,3.6872,3.686,3.686,3.6879,3.6879,3.6879,3.6879,3.6879,3.6879,3.6996,3.6993,3.6986,3.6979,3.6972,3.6966,3.6961,3.6954,3.6947,3.6938,3.6932,3.6924,3.6913,3.6903,3.6895,3.6891,3.6888,3.6892,3.6887,3.6876,3.6873,3.6871,3.6872,3.6892,3.6892,3.69,3.69,3.69]}]]